Weather Roundup
Issued by NWS Chicago, IL

Home | Current Version | Previous Version | Text Only | Print | Product List | Glossary Off
Versions: 1 2 3 4 5 6 7 8 9 10 11 12 13 14 15 16 17 18 19 20 21 22 23 24 25 26 27 28 29 30 31 32 33 34 35 36 37 38 39 40 41 42 43 44 45 46 47 48 49 50

000
NZUS59 KLOT 251906
HRRLOT

CHICAGO AREA WEATHER ROUNDUP
NATIONAL WEATHER SERVICE CHICAGO/ROMEOVILLE IL
100 PM CST SUN JAN 25 2015

NOTE: "FAIR" INDICATES FEW OR NO CLOUDS BELOW 12,000 FEET WITH NO
SIGNIFICANT WEATHER AND/OR OBSTRUCTIONS TO VISIBILITY.

* THESE STATIONS ARE NOT UNDER NWS QUALITY CONTROL. THEY ALSO MAY NOT
  REPORT WEATHER SUCH AS PRECIPITATION OR FOG.

ILZ005-006-012>014-019>023-252000-
NORTHEAST ILLINOIS

CITY           SKY/WX    TMP DP  RH WIND       PRES   REMARKS
OHARE          LGT SNOW  29  25  85 NE22G32   29.81S FOG     WCI  15
MIDWAY         LGT SNOW  32  29  88 NE21      29.80R FOG     WCI  20
AURORA         LGT SNOW  31  24  75 NE24G31   29.79S WCI  17
LANSING*       LGT SNOW  31  30  95 NE18G25   29.77R WCI  19
JOLIET*        LGT SNOW  32  29  90 NE15G25   29.78R WCI  21
WAUKEGAN       CLOUDY    27  18  69 N16G30    29.85S WCI  15
DUPAGE AIRPORT LGT SNOW  29  24  82 NE22      29.80R WCI  15
WHEELING       LGT SNOW  28  23  81 NE16G25   29.85S WCI  16
KANKAKEE*      LGT SNOW  33  32  96 NE13      29.73S WCI  24
MORRIS*        LGT SNOW  32  32  99 NE10G18   29.76R VSB 1   WCI  24
LEWIS AIRPORT* LGT RAIN  32  30  94 NE22G29   29.77S WCI  19
NORTHERLY IS     N/A     29  28  96 MISG        N/A
$$

WIZ051-052-058>065-066-070>072-252000-
SOUTHEAST WISCONSIN

CITY           SKY/WX    TMP DP  RH WIND       PRES   REMARKS
MILWAUKEE      PTSUNNY   26  14  60 NE21G29   29.91S WCI  12
KENOSHA*       CLOUDY    27  17  66 NE22G31   29.87S WCI  13
RACINE*        PTSUNNY   28  16  60 NE18G31   29.90F WCI  15
BURLINGTON     PTSUNNY   26  14  61 NE18      29.89R WCI  12
WAUKESHA       PTSUNNY   21  10  63 NE17G29   29.92R WCI   7
$$

INZ001>003-010>013-019-020-252000-
NORTHWEST INDIANA

CITY           SKY/WX    TMP DP  RH WIND       PRES   REMARKS
GARY*          LGT SNOW  32  28  86 NE15G31   29.79R WCI  22
MICHIGAN CITY* NOT AVBL
RENSSELAER*    NOT AVBL
VALPARAISO     SNOW      31  29  92 NE14      29.75S VSB 1/2 WCI  21
$$

LMZ740>746-252000-
SOUTHERN LAKE MICHIGAN

STATION/POSITION TIME  SKY/WX   TEMP WIND        PRES    VSBY
                                AIR  DIR/SP/G
                 (UTC)          (F)  (DEG/KT/KT) (MB)    (MI)
HARRISON CRIB    1900            29   30/ 25/ 29   N/A
BURNHAM HARBOR   1900            29   30/ 21/ 23   N/A
CALUMET HARBOR   1900            30   30/ 18/ 24   N/A
BURNS HARBOR     NOT AVBL
MICHIGAN CITY    1900            28   20/ 21/ 23   N/A
$$

ABBREVIATIONS USED IN REMARKS
   TC - TEMPERATURE IN CELSIUS
  WCI - WIND CHILL INDEX
   HX - HEAT INDEX
  VSB - VISIBILITY
$$


USA.gov is the U.S. government's official web portal to all federal, state and local government web resources and services.